DateTime,Index
2001092106,0.0
2001092112,1225.0
2001092118,1225.0
2001092200,1600.0
2001092206,2025.0
2001092212,2025.0
2001092218,2025.0
2001092300,2500.0
2001092306,3025.0
2001092312,4225.0
2001092318,7225.0
2001092400,12100.0
2001092406,13225.0
2001092412,10000.0
2001092418,9025.0
2001092500,13225.0
2001092506,15625.0
2001092512,15625.0
2001092518,15625.0
2001092600,15625.0
2001092606,13225.0
2001092612,11025.0
2001092618,10000.0
2001092700,9025.0
2001092706,8100.0
2001092712,7225.0
2001092718,6400.0
2001092800,6400.0
2001092806,5625.0
2001092812,4900.0
2001092818,3600.0
2001092900,3600.0
2001092906,4225.0
2001092912,4225.0
2001092918,2025.0
2001093000,1225.0
2001093006,0.0
2001093012,0.0
2001093018,0.0
2001100100,0.0
2001100106,0.0
2001100112,0.0
2001100118,0.0
2001100200,0.0
2001100206,0.0
2001100212,0.0
2001100218,0.0
2001100300,0.0
